Location: OHP
(43.9325°N, 5.7154°E)
Time: 22:08:01
(UTC+00:00)

Envisat - Visible Passes

Search period start: 02 February 2023 00:00
Search period end: 12 February 2023 00:00
Orbit: 763 x 765 km, 98.2° (Epoch: 02 February)

Date Brightness Start Highest point End Pass type
(mag) Time Alt. Az. Time Alt. Az. Time Alt. Az.
02 Feb 5.8 03:03:27 10° NNE 03:03:36 11° NNE 03:03:36 11° NNE visible
02 Feb 4.9 04:42:30 10° N 04:43:47 17° NNW 04:43:47 17° NNW visible
03 Feb 5.0 04:05:05 10° N 04:06:27 19° N 04:06:27 19° N visible
04 Feb 5.4 03:28:05 10° NNE 03:29:07 16° NNE 03:29:07 16° NNE visible
04 Feb 4.8 05:08:03 10° NNW 05:09:19 15° NNW 05:09:19 15° NNW visible
05 Feb 5.9 02:51:38 10° NE 02:51:47 11° NE 02:51:47 11° NE visible
05 Feb 4.7 04:30:15 10° N 04:31:59 20° N 04:31:59 20° N visible
06 Feb 4.9 03:52:58 10° NNE 03:54:39 21° NNE 03:54:39 21° NNE visible
06 Feb 5.0 05:34:13 10° NNW 05:34:50 11° NW 05:34:50 11° NW visible
07 Feb 5.4 03:16:07 10° NNE 03:17:19 17° NNE 03:17:19 17° NNE visible
07 Feb 4.6 04:55:38 10° N 04:57:31 19° NNW 04:57:31 19° NNW visible
08 Feb 6.0 02:39:55 10° NE 02:40:00 10° NE 02:40:00 10° NE visible
08 Feb 4.5 04:18:02 10° N 04:20:11 25° N 04:20:11 25° N visible
09 Feb 4.8 03:40:53 10° NNE 03:42:52 24° NNE 03:42:52 24° NNE visible
09 Feb 4.8 05:21:26 10° NNW 05:23:03 14° NW 05:23:03 14° NW visible
10 Feb 5.4 03:04:12 10° NNE 03:05:33 17° NE 03:05:33 17° NE visible
10 Feb 4.4 04:43:19 10° N 04:45:44 23° NNW 04:45:44 23° NNW visible
11 Feb 4.3 04:05:52 10° N 04:08:25 30° N 04:08:25 30° N visible
